Vorticity
12 8 7 7 6 4 1 -3 -21 4 3 3 2 2 8 15 5 7 13 -16 17 -3 50 -22 25 26 8 12 12 17 9 11 10 5 12 7 5 5 10 11 8 5 3
14 12 11 6 6 7 7 8 7 1 4 3 -0 -2 -3 -25 38 54 -16 31 -9 24 14 5 6 5 17 -8 -2 -1 7 1 7 2 3 -2 4 6 -2 -1 -2 1 5
11 17 11 13 4 5 6 7 6 5 4 3 5 2 9 30 -13 -22 -14 12 18 13 -5 49 19 14 4 40 -4 17 -5 0 8 -7 -14 -2 -4 -2 -1 -5 -2 2 3
31 12 15 14 11 4 4 6 7 8 4 5 2 7 7 11 -14 -15 2 17 25 4 25 36 29 16 13 40 15 -8 2 16 25 -10 -5 9 10 10 9 8 5 7 7
16 33 16 19 14 11 8 4 4 4 7 8 8 3 6 2 9 10 11 8 16 22 12 6 0 10 1 12 17 0 -8 -6 -1 1 6 9 6 -1 -2 -3 2 2 1
35 21 27 16 22 8 7 2 6 11 8 7 1 8 4 9 10 8 10 9 15 18 6 -5 10 7 -6 -2 -13 -3 5 7 8 8 6 1 2 2 3 4 3 1 2
45 31 29 23 16 16 4 19 7 5 7 3 -1 11 12 13 4 8 7 11 -5 1 -2 2 -3 -1 2 6 13 15 12 9 9 5 4 4 5 7 8 8 8 11 10
27 37 39 27 13 23 11 19 9 10 5 22 31 27 9 4 4 0 4 5 1 7 1 4 5 4 3 6 2 4 5 5 4 7 10 10 15 15 14 20 22 20 18
50 55 13 7 15 43 25 31 15 -0 -12 20 8 14 -12 8 19 12 4 3 7 16 11 10 10 3 9 11 13 9 11 16 18 20 16 9 8 6 7 6 3 8 10
2 3 26 0 28 19 9 25 27 32 16 18 25 24 20 8 10 14 4 13 1 6 6 10 7 9 9 10 10 8 6 7 10 9 8 5 9 8 9 13 11 11 13
33 17 22 14 -32 18 2 -0 -25 10 8 6 5 7 8 5 4 2 1 1 3 5 10 10 5 2 1 6 6 6 7 5 6 14 21 17 17 8 7 11 31 46 35
5 -2 24 9 47 21 -20 -2 -2 -4 -6 5 9 13 11 11 18 19 13 11 8 9 10 7 8 9 6 11 11 27 31 34 25 20 27 30 34 37 20 3 8 12 4
73 9 27 17 -0 16 17 2 4 14 19 9 17 -6 1 2 41 50 48 51 60 63 70 72 64 54 46 46 49 49 41 34 28 23 14 9 10 8 6 8 10 11 13
9 -6 -1 1 -0 -1 7 10 9 8 8 15 6 9 5 15 8 12 17 19 19 18 18 20 21 17 17 13 8 5 6 9 8 3 5 6 8 10 8 9 10 9 9
9 10 8 7 11 7 1 16 1 10 8 2 9 10 46 37 25 16 11 8 6 4 6 5 5 5 4 2 2 4 6 7 8 8 6 7 6 5 6 5 5 9 9
30 33 29 31 28 20 15 19 20 17 15 23 37 16 7 3 2 4 4 4 6 7 7 8 8 8 8 6 5 5 5 4 4 3 3 3 4 6 6 5 6 6 4
19 27 31 28 30 32 32 34 33 30 19 8 4 4 4 4 5 6 6 5 2 2 4 6 6 6 5 6 6 7 9 9 9 9 9 10 10 10 10 9 8 9 7
11 12 13 15 14 9 5 5 3 5 4 1 0 2 6 6 5 6 6 7 7 7 7 5 5 6 7 8 9 9 9 10 10 9 9 7 7 9 10 11 10 9 8
12 8 5 2 1 3 5 6 6 5 7 5 2 3 3 4 5 4 3 4 5 5 6 7 8 9 9 8 8 8 8 7 7 7 7 7 7 9 9 9 9 8 12
3 1 1 1 0 2 3 8 8 2 2 -1 -0 2 5 6 6 7 8 8 9 9 9 9 9 9 9 9 8 7 7 8 7 8 8 8 9 9 10 10 9 9 9
4 1 0 3 1 1 3 7 3 -1 -3 -1 1 3 6 7 9 8 6 6 7 8 8 6 7 8 8 8 8 8 8 8 8 9 10 10 9 10 11 10 10 8 10
1 2 0 -1 -1 4 2 4 2 3 4 7 7 7 5 8 9 7 6 7 7 8 7 7 6 7 7 7 7 7 8 9 9 8 10 10 10 11 12 12 9 7 9
9 3 2 4 3 2 4 6 5 3 3 6 3 5 8 8 4 5 7 6 8 8 7 6 6 5 6 7 7 6 9 9 9 8 9 11 11 12 12 12 8 8 10
11 10 10 9 9 10 10 8 7 3 4 4 3 6 7 7 5 6 8 8 7 7 7 5 6 8 8 8 8 9 10 9 10 9 10 11 12 12 12 11 8 8 11
7 8 9 8 7 6 5 4 4 5 7 9 7 5 6 5 8 8 6 6 5 6 6 5 7 8 8 8 9 10 10 10 9 9 11 12 13 11 11 10 7 9 11
11 9 7 6 7 8 9 9 9 8 6 5 6 5 8 8 6 7 7 5 5 5 6 5 4 7 9 8 9 11 11 11 10 9 11 12 12 12 11 8 9 10 10
Height
5663 5675 5685 5694 5704 5713 5721 5728 5736 5741 5746 5752 5756 5760 5760 5758 5758 5764 5765 5769 5770 5769 5768 5774 5775 5776 5777 5778 5777 5778 5778 5778 5780 5782 5780 5780 5779 5776 5777 5775 5774 5773 5773
5641 5651 5665 5677 5687 5697 5707 5715 5724 5731 5737 5742 5747 5750 5746 5751 5754 5758 5757 5759 5763 5763 5764 5765 5766 5768 5769 5771 5770 5771 5772 5772 5770 5773 5772 5770 5770 5767 5766 5766 5765 5763 5760
5618 5629 5643 5658 5670 5681 5693 5703 5713 5722 5727 5731 5736 5740 5743 5748 5746 5749 5753 5753 5753 5754 5755 5754 5756 5759 5759 5760 5761 5758 5763 5762 5762 5760 5761 5751 5759 5759 5757 5756 5754 5751 5749
5594 5608 5621 5638 5653 5666 5679 5690 5700 5710 5715 5719 5726 5730 5734 5739 5740 5741 5742 5745 5748 5750 5750 5749 5750 5750 5749 5749 5751 5753 5753 5753 5753 5752 5751 5751 5748 5746 5743 5740 5740 5738 5735
5571 5585 5602 5619 5635 5650 5666 5678 5689 5698 5705 5709 5716 5722 5727 5730 5732 5734 5737 5738 5739 5742 5743 5743 5744 5744 5744 5745 5745 5744 5742 5742 5742 5742 5740 5738 5735 5732 5731 5728 5725 5723 5722
5551 5565 5582 5602 5619 5636 5653 5666 5679 5687 5694 5701 5706 5714 5719 5721 5723 5726 5728 5729 5732 5734 5735 5737 5737 5736 5737 5737 5737 5735 5733 5730 5729 5727 5725 5724 5721 5717 5714 5712 5711 5710 5707
5536 5549 5565 5587 5605 5624 5641 5656 5668 5676 5685 5690 5698 5708 5710 5711 5714 5716 5718 5721 5723 5726 5728 5727 5727 5727 5727 5726 5725 5724 5721 5718 5717 5713 5710 5706 5704 5701 5699 5695 5692 5690 5688
5526 5537 5555 5576 5598 5617 5633 5648 5660 5668 5677 5686 5693 5699 5700 5702 5705 5707 5709 5711 5713 5717 5717 5717 5717 5716 5715 5713 5712 5711 5708 5704 5701 5697 5694 5691 5687 5684 5680 5676 5673 5672 5671
5522 5534 5555 5575 5596 5613 5628 5642 5651 5662 5671 5678 5685 5689 5693 5695 5698 5699 5699 5700 5703 5703 5703 5702 5701 5701 5701 5698 5698 5694 5691 5689 5687 5683 5680 5677 5672 5669 5664 5660 5655 5651 5650
5539 5548 5561 5579 5593 5608 5623 5638 5643 5653 5664 5672 5678 5682 5685 5687 5688 5689 5689 5690 5690 5691 5689 5686 5685 5684 5683 5682 5681 5679 5679 5677 5675 5671 5668 5664 5659 5653 5648 5642 5637 5632 5626
5549 5560 5573 5583 5591 5609 5620 5633 5641 5650 5658 5666 5672 5675 5677 5677 5677 5677 5678 5677 5677 5676 5675 5672 5670 5670 5669 5668 5667 5666 5665 5663 5661 5658 5654 5650 5646 5641 5636 5629 5623 5618 5612
5561 5570 5579 5588 5593 5607 5620 5629 5639 5647 5655 5660 5664 5667 5668 5667 5664 5662 5662 5661 5661 5660 5660 5659 5659 5658 5656 5654 5653 5652 5650 5649 5646 5645 5642 5638 5634 5630 5624 5619 5612 5604 5594
5568 5579 5586 5591 5601 5612 5623 5630 5637 5645 5650 5655 5659 5661 5661 5659 5653 5648 5647 5648 5649 5649 5649 5648 5645 5645 5644 5642 5642 5641 5639 5639 5638 5635 5634 5628 5625 5621 5614 5606 5599 5590 5581
5583 5589 5592 5598 5605 5612 5619 5627 5634 5640 5645 5650 5653 5655 5654 5652 5650 5646 5644 5643 5643 5643 5643 5643 5642 5640 5639 5638 5637 5636 5635 5633 5631 5628 5624 5619 5615 5609 5602 5596 5588 5580 5572
5591 5595 5600 5605 5610 5615 5621 5627 5632 5637 5641 5645 5647 5648 5648 5648 5647 5645 5644 5644 5643 5643 5643 5642 5640 5638 5636 5635 5634 5632 5629 5626 5623 5618 5615 5609 5603 5598 5592 5585 5577 5568 5558
5596 5599 5603 5607 5611 5615 5621 5626 5629 5633 5637 5641 5644 5646 5646 5645 5645 5644 5645 5643 5643 5642 5642 5640 5638 5636 5634 5631 5629 5626 5623 5619 5615 5611 5606 5600 5595 5588 5581 5572 5563 5555 5546
5604 5605 5607 5610 5613 5617 5620 5624 5628 5632 5636 5640 5643 5644 5645 5645 5645 5644 5643 5643 5642 5640 5640 5638 5635 5632 5629 5626 5623 5620 5616 5612 5607 5602 5596 5590 5584 5577 5569 5561 5553 5544 5534
5611 5612 5613 5615 5618 5621 5624 5628 5632 5635 5638 5640 5642 5643 5643 5643 5642 5642 5641 5639 5639 5637 5635 5633 5630 5627 5624 5621 5617 5612 5607 5603 5598 5593 5587 5580 5573 5566 5558 5549 5541 5533 5523
5618 5619 5620 5622 5625 5627 5630 5632 5634 5636 5638 5639 5640 5641 5641 5640 5640 5639 5638 5637 5635 5633 5631 5628 5625 5622 5618 5614 5611 5606 5601 5596 5590 5584 5577 5570 5562 5554 5546 5538 5529 5520 5512
5623 5624 5625 5626 5628 5629 5631 5633 5634 5635 5637 5638 5639 5638 5638 5637 5636 5636 5634 5633 5631 5629 5626 5623 5620 5616 5612 5608 5603 5598 5593 5587 5580 5574 5567 5559 5552 5545 5537 5528 5519 5511 5502
5626 5627 5627 5628 5629 5630 5631 5633 5634 5635 5635 5635 5635 5634 5634 5633 5633 5632 5630 5627 5625 5623 5620 5616 5612 5608 5604 5599 5594 5588 5582 5575 5569 5562 5556 5548 5540 5532 5525 5517 5509 5501 5492
5626 5627 5628 5628 5629 5629 5631 5632 5632 5632 5632 5632 5631 5631 5630 5628 5627 5626 5624 5621 5619 5615 5611 5608 5604 5599 5594 5589 5583 5577 5571 5564 5558 5551 5544 5536 5529 5521 5514 5506 5499 5491 5482
5624 5624 5625 5626 5627 5628 5629 5629 5628 5628 5628 5627 5627 5626 5624 5623 5621 5619 5616 5614 5610 5607 5603 5599 5594 5590 5584 5579 5573 5567 5560 5553 5547 5540 5532 5525 5518 5510 5503 5495 5488 5480 5472
5621 5622 5622 5623 5623 5623 5623 5623 5623 5623 5622 5621 5620 5619 5617 5616 5614 5612 5609 5606 5602 5598 5594 5590 5585 5579 5574 5569 5562 5556 5549 5542 5536 5529 5521 5514 5506 5499 5491 5484 5477 5470 5462
5616 5616 5616 5617 5617 5617 5617 5616 5616 5615 5615 5614 5613 5612 5610 5608 5605 5603 5600 5597 5593 5589 5585 5581 5575 5570 5564 5559 5552 5546 5539 5532 5525 5517 5510 5502 5495 5487 5479 5472 5466 5458 5451
5610 5610 5610 5610 5610 5609 5609 5609 5609 5608 5607 5607 5605 5604 5602 5599 5596 5594 5591 5588 5584 5580 5575 5570 5565 5559 5553 5547 5540 5533 5526 5519 5512 5505 5498 5491 5483 5475 5467 5460 5453 5446 5438